Tracking 20083 objects as of 12-Dec-2019
HD Live streaming from Space Station
objects crossing your sky now

TITAN 3C TRANSTAGE DEB

Track TITAN 3C TRANSTAGE DEB now!


NORAD ID: 28816
Int'l Code: 1965-108CD
Perigee: 1,341.0 km
Apogee: 30,233.5 km
Inclination: 26.3 °
Period: 547.1 minutes
Semi major axis: 22158 km
RCS: 0.0317 m2 (small)
Launch date: December 21, 1965
Source: United States (US)
Launch site: AIR FORCE EASTERN TEST RANGE (AFETR)

Note: This is SATELLITE DEBRIS
aabbcc
Your satellite tracking list
Your tracking list is empty




NASA's NSSDC Master Catalog

Two Line Element Set (TLE):
1 28816U 65108CD  15084.93591330 -.00000060 +00000-0 +00000-0 0  9993
2 28816 026.3341 291.1636 6519576 166.1851 358.5655 02.63208063020189
Source of the keplerian elements: AFSPC